ONEWEB-0194, 48237

Orbit data source: Space-Track

ONEWEB-0194, 48237 is a payload satellite owned by One Web (NAA) (UK) in LEO that was launched on Sun, 25 Apr 2021 UTC via a SOYUZ-2-1B launch vehicle from the Vostochny Cosmodrome (VOSTO). Payload-class satellites include a variety of spacecraft equipped with specific instruments for various scientific and technological missions. These include communications satellites like Starlink; space stations such as the ISS; scientific satellites like the Hubble; Earth observation satellites from companies like Planet Labs, Umbra, and HawkEye 360; GPS; miniature CubeSats for education and research; and military/defense satellites.

Loading next visibility...
Identifier
48237, 2021-031AD
Orbit
LEO
Country
Flag of UKUK
Related business
Manufacturer
One Web
Mission
Operational Commercial Communications
Bus & Motor
ARROW, Unknown motor
Mass
148 kg wet, ~140 kg dry
Launch date (UTC)
2021-04-25 (5 years ago)
Launch vehicle
SOYUZ-2-1B
Launch site
Vostochny Cosmodrome (VOSTO)
Object type
Payload
Rocket body
Debris
Shape & HBR
Trap Box + 2 Pan, 6.7 m
Radar Cross Section
3.464 m², Large (>1 m²)

Expand to show TLE details & history
Last TLE update: 20 hours ago

TLE from 20 hours ago
0 ONEWEB-0194
1 48237U 21031AD  26094.60003732 -.00000147  00000-0 -43172-3 0  9997
2 48237  87.8939 304.3959 0001884  91.8582 268.2763 13.14504559238696
Epoch: 2026-04-04T14:24Z
TLE epoch observation values (Epoch: 2026-04-04T14:24:03.224Z)
Latitude
-0.00007°
Longitude
-104.53503°
Altitude
1,208.721 km
Speed
7.25 km/s
True Right ascension
20h 17m 35s
True Declination
0° 00' 00"
Sunlit
Object was in daylight at epoch
Visualization orbit readout
Latitude
Unknown
Longitude
Unknown
Altitude
Unknown
Speed
Unknown
Apparent Right ascension
Unknown
Apparent Declination
Unknown
Sunlit
N/A
Visualization observer readout
Local Sidereal Time
16:34:58
Azimuth
Unknown
Elevation
Unknown
Doppler factor
Unknown
Orbital elements
Apogee altitude
1,204.325 km
Perigee altitude
1,201.469 km
Semi-major axis
7,581.034 km
Eccentricity
0.00019
Inclination
87.8939°
RAAN
304.3959°
Arg. of periapsis
91.8582°
True anomaly
268.25472°
Mean anomaly
268.2763°
Eccentric anomaly
268.26551°
Mean motion
3.28814 °/min
Orbital period
109.48 mins
BSTAR
-0.00043172
Loading maneuver chart data...
Computing Atmospheric mass density...
Loading historical data...
Loading historical data...
Loading historical data...
Loading historical data...
Loading historical data...
Loading historical data...
Loading historical data...

Documentation

Showing up to 5 results
|